Temp
8 8 8 7 7 7 6 6 6 6 6 5 5 6 6 6 6 6 6 6 7 7 7 7 7 6 6 6 6 6 6 5 5 5 5 5 4 4 4 4 4 4 5 5 4 4 4 4 4 4 4 5 5 5 5 5 5 5 5 5 5 5 5 5 5 5 5 5 4 4 4 4 4 5 5 5 5 5 5 5 5 5 5 6 6 6
7 7 7 7 6 6 6 6 6 5 5 5 5 5 5 6 6 6 6 6 6 6 6 6 6 6 6 5 5 5 5 5 5 5 4 4 4 4 4 4 4 4 4 4 4 4 4 4 4 4 4 4 4 4 4 4 5 5 5 5 5 5 4 4 4 4 4 4 4 4 4 4 4 4 4 4 4 4 4 4 5 5 5 5 5 5
7 6 6 6 6 6 5 5 5 5 5 5 5 5 5 5 5 6 6 6 6 6 6 6 6 6 5 5 5 5 5 5 5 4 4 4 4 3 3 3 3 3 4 3 3 3 3 3 3 4 4 4 4 4 4 4 4 4 4 4 4 4 4 4 4 4 4 4 4 4 4 4 4 4 4 4 4 4 4 4 4 4 5 5 5 5
6 6 6 5 5 5 5 5 5 4 4 5 5 5 5 5 5 5 5 6 6 6 6 6 6 5 5 5 5 5 5 4 4 4 4 3 3 3 3 3 3 3 3 3 3 3 3 3 3 3 3 4 4 4 4 4 4 4 4 4 4 4 4 4 4 4 3 3 3 3 3 3 3 3 3 3 3 3 3 4 4 4 4 4 5 5
6 6 5 5 5 4 5 5 4 4 4 4 4 4 4 4 5 5 5 5 5 5 5 5 5 5 5 5 4 4 4 4 4 4 3 3 3 3 3 3 3 3 2 2 3 2 2 2 3 3 3 3 3 3 3 3 3 3 3 3 3 3 3 3 3 3 3 3 3 3 3 3 3 3 3 3 3 3 3 3 3 3 4 4 4 4
6 6 5 5 4 4 4 4 4 4 4 4 4 4 4 4 4 5 5 5 5 5 5 5 5 5 4 4 4 4 4 4 3 3 3 3 3 3 3 3 2 2 2 2 2 2 2 2 2 2 3 3 3 3 3 3 3 3 3 3 3 3 3 3 3 3 3 3 3 3 3 3 3 3 3 3 3 3 3 3 3 3 3 3 4 4
5 5 5 4 4 4 4 4 4 4 4 3 3 3 4 4 4 4 4 4 4 4 4 4 4 4 4 4 4 4 3 3 3 3 3 3 3 2 2 2 2 2 2 2 2 2 2 2 2 2 2 2 2 2 2 2 2 2 2 2 2 2 2 2 2 2 2 2 2 2 2 2 2 2 2 2 2 2 3 3 3 3 3 3 3 3
5 4 4 4 3 3 3 3 3 3 3 3 3 3 3 3 4 4 4 4 4 4 4 4 4 3 3 3 3 3 3 3 3 3 2 2 2 2 2 2 2 2 2 2 2 2 2 2 2 2 2 2 2 2 2 2 2 2 2 2 2 2 2 2 2 2 2 2 2 2 2 2 2 2 2 2 2 2 2 2 2 2 2 3 3 3
5 4 3 3 3 2 2 2 2 2 2 3 3 3 3 3 3 3 3 3 3 3 3 3 3 3 3 3 3 3 3 3 3 3 3 2 2 2 2 2 2 2 2 2 1 1 1 1 2 2 2 1 1 1 1 1 1 1 1 1 1 1 1 1 1 1 1 1 1 1 1 1 1 1 1 1 2 2 2 2 2 2 2 2 2 3
5 4 3 3 3 3 2 2 2 2 2 2 3 3 3 2 2 2 2 2 2 3 3 2 2 2 2 2 2 2 2 2 3 3 3 3 2 2 2 2 2 2 1 1 1 1 1 1 1 1 1 1 1 1 1 1 1 1 1 1 1 1 1 0 0 0 0 0 0 0 0 1 1 1 1 1 1 1 1 1 1 2 2 2 2 2
4 4 3 3 3 3 3 2 2 2 2 2 2 2 2 2 2 2 1 1 1 2 2 2 2 2 2 2 2 2 2 2 2 2 3 2 2 2 2 2 2 1 1 1 1 1 1 1 1 1 1 1 1 1 1 1 1 1 1 1 1 0 0 0 -0 -0 -0 -0 -0 -0 -0 -0 -0 0 0 0 0 0 1 1 1 1 1 2 2 2
4 3 3 3 2 2 2 2 1 1 2 2 2 2 2 2 2 2 2 1 1 1 1 1 1 1 1 1 2 2 2 2 2 2 2 2 2 2 2 2 1 1 1 1 1 1 1 1 1 1 1 0 0 1 1 1 1 1 1 0 0 0 0 -0 -0 -0 -0 -0 -0 -0 -0 -0 -0 -0 -0 -0 -0 0 0 0 0 1 1 1 1 1
4 3 3 3 2 2 1 1 1 1 1 2 2 2 2 2 2 2 2 2 1 1 1 1 1 1 1 1 1 1 1 1 1 1 2 2 2 2 2 1 1 1 1 1 1 1 1 1 1 1 0 0 0 0 0 1 1 1 0 0 0 0 0 -0 -0 -1 -1 -1 -1 -1 -1 -1 -0 -0 -0 -0 -0 -0 -0 -0 -0 0 1 1 1 1
4 3 3 3 2 2 1 1 1 1 1 2 3 3 3 2 2 2 3 2 2 1 1 1 0 0 1 1 1 1 1 1 1 1 1 1 1 1 1 1 1 1 1 1 1 1 1 1 1 1 0 0 0 0 0 0 0 0 0 0 0 0 -0 -0 -1 -1 -1 -1 -1 -1 -1 -1 -1 -1 -1 -1 -1 -0 -0 -0 -0 -0 0 0 1 1
4 3 3 3 3 2 2 2 2 2 2 2 3 3 3 2 2 2 2 2 1 1 0 0 0 -0 -0 0 1 1 1 1 1 1 1 1 1 1 1 1 1 1 1 1 1 1 1 1 0 0 0 0 -0 -0 -0 -0 -0 0 0 -0 -0 -0 -0 -1 -1 -1 -1 -1 -1 -1 -1 -1 -1 -1 -1 -1 -1 -1 -1 -1 -0 -0 -0 0 0 1
4 4 4 4 3 3 3 2 2 3 3 3 3 2 2 2 1 2 2 1 1 0 0 1 0 0 -0 0 1 1 1 1 1 1 1 1 1 1 1 1 1 1 1 1 1 1 1 1 0 0 0 -0 -0 -0 -0 -0 -0 -0 -0 -0 -0 -0 -1 -1 -1 -1 -1 -1 -1 -1 -1 -1 -1 -1 -1 -1 -1 -1 -1 -1 -1 -1 -0 -0 -0 0
4 4 4 4 4 4 3 3 3 3 3 3 2 2 2 2 2 2 2 1 0 0 1 1 1 1 1 0 0 1 1 1 1 2 2 1 1 1 1 1 1 0 1 1 1 1 1 0 0 0 0 -0 -0 -0 -0 -0 -0 -0 -0 -1 -1 -1 -1 -1 -1 -1 -1 -1 -1 -1 -1 -1 -1 -1 -1 -1 -1 -1 -1 -1 -1 -1 -1 -0 -0 -0
4 4 5 5 5 4 3 3 3 3 3 2 2 2 2 2 2 2 1 1 1 1 2 2 2 3 2 2 1 0 1 1 1 1 2 1 1 1 1 1 1 0 0 0 0 1 0 0 0 0 -0 -0 -0 -0 -0 -0 -0 -1 -1 -1 -1 -1 -1 -1 -1 -1 -1 -1 -1 -1 -2 -2 -2 -1 -1 -1 -1 -1 -1 -1 -1 -1 -1 -1 -1 -0
4 4 4 5 5 4 3 3 3 3 2 2 2 1 1 1 1 1 1 1 2 2 2 3 3 3 4 3 2 1 1 1 1 1 1 2 1 1 1 1 0 0 0 0 0 0 0 0 0 -0 -0 -0 -0 -0 -0 -1 -1 -1 -1 -1 -1 -1 -1 -1 -1 -1 -1 -2 -2 -2 -2 -2 -2 -2 -1 -1 -1 -1 -1 -1 -1 -1 -1 -1 -1 -1
4 4 4 5 5 4 3 3 3 3 2 2 2 1 1 1 1 1 1 1 2 2 3 3 3 3 4 3 1 1 1 1 0 1 1 1 1 1 1 0 0 0 0 -0 0 0 0 0 -0 -0 -0 -0 -0 -0 -1 -1 -1 -1 -1 -1 -1 -1 -1 -1 -1 -2 -2 -2 -2 -2 -2 -2 -2 -2 -2 -2 -1 -1 -1 -1 -1 -1 -1 -1 -1 -1
5 4 4 5 5 4 4 3 3 3 3 2 2 1 1 1 1 1 1 1 2 2 2 3 3 3 2 1 1 1 2 1 0 0 1 1 1 0 0 0 0 -0 -0 -0 0 0 0 -0 -0 -0 -0 -0 -1 -1 -1 -1 -1 -2 -2 -1 -1 -1 -1 -1 -2 -2 -2 -2 -2 -2 -2 -2 -2 -2 -2 -2 -2 -2 -2 -2 -1 -1 -1 -2 -1 -1
5 5 5 5 5 5 4 4 3 3 3 2 2 1 1 1 1 1 1 1 1 2 2 3 3 2 1 1 1 2 2 1 0 0 1 1 0 0 0 0 0 -0 -0 -0 -0 0 -0 -0 -0 -0 -1 -1 -1 -1 -1 -1 -2 -2 -2 -2 -2 -2 -1 -2 -2 -2 -2 -2 -2 -2 -2 -2 -2 -2 -2 -2 -2 -2 -2 -2 -2 -2 -2 -2 -2 -1
4 4 4 4 4 4 4 4 3 3 3 3 2 2 2 1 1 1 1 1 1 1 1 1 1 1 1 1 2 2 1 1 0 0 0 1 1 0 0 0 -0 -0 -1 -1 -0 -0 -0 -0 -1 -1 -1 -1 -1 -1 -1 -2 -2 -2 -2 -2 -2 -2 -2 -2 -2 -2 -2 -2 -2 -2 -2 -2 -2 -2 -2 -2 -2 -2 -2 -2 -2 -2 -2 -2 -2 -2
3 4 4 4 4 4 4 3 3 3 3 2 2 2 2 2 2 2 2 1 1 1 1 1 1 0 0 1 1 1 1 1 0 0 0 1 1 0 -0 -0 -0 -1 -1 -1 -0 -0 -1 -1 -1 -1 -1 -1 -1 -1 -1 -1 -2 -2 -2 -2 -2 -2 -2 -2 -2 -2 -2 -2 -2 -2 -2 -2 -2 -2 -2 -2 -2 -2 -2 -2 -2 -2 -2 -2 -2 -2
3 3 3 3 3 4 3 3 3 3 3 2 2 2 2 2 2 2 1 1 1 1 0 0 0 -0 -1 -1 -1 -0 0 0 0 -0 -0 0 0 -0 -0 -0 -0 -1 -1 -1 -1 -1 -1 -1 -1 -1 -1 -1 -1 -1 -1 -1 -1 -1 -2 -2 -2 -2 -2 -2 -2 -2 -2 -2 -2 -2 -2 -2 -2 -2 -2 -2 -2 -2 -2 -2 -2 -2 -2 -2 -2 -2
3 4 4 4 4 4 3 3 3 3 3 2 2 2 2 2 2 1 1 1 0 0 0 0 1 0 -1 -1 -1 -1 -1 -0 -0 -0 -0 -0 -0 -1 -0 -1 -1 -1 -1 -1 -1 -1 -1 -1 -1 -1 -1 -1 -1 -1 -1 -1 -1 -1 -1 -2 -2 -2 -2 -2 -2 -2 -2 -2 -2 -2 -2 -2 -2 -2 -2 -2 -2 -2 -2 -2 -2 -2 -2 -3 -3 -2
3 3 4 4 4 4 3 3 3 3 3 2 2 2 2 1 1 1 0 0 0 0 1 1 2 1 -0 -1 -1 -1 -2 -1 -1 -1 -0 -0 -1 -1 -1 -1 -1 -1 -2 -2 -1 -1 -2 -2 -2 -2 -1 -1 -1 -1 -1 -1 -1 -1 -2 -2 -2 -2 -2 -2 -2 -2 -2 -2 -2 -2 -2 -2 -2 -2 -2 -2 -2 -2 -2 -2 -2 -2 -3 -3 -3 -3
3 3 3 3 3 3 3 3 3 3 3 2 2 2 2 1 1 1 0 0 0 1 1 2 2 2 1 0 -0 -1 -2 -2 -1 -1 -1 -1 -1 -1 -2 -1 -1 -1 -2 -2 -2 -2 -2 -2 -2 -2 -1 -1 -1 -1 -1 -1 -1 -2 -2 -2 -2 -2 -2 -2 -2 -2 -2 -2 -2 -2 -2 -2 -2 -2 -2 -2 -2 -2 -2 -2 -2 -3 -3 -3 -3 -2
3 3 3 3 3 3 3 3 3 3 3 2 2 2 1 1 1 1 1 1 1 1 2 2 2 2 1 0 -1 -2 -2 -2 -1 -1 -1 -1 -1 -2 -2 -1 -1 -2 -2 -2 -2 -2 -2 -2 -2 -2 -2 -2 -2 -2 -2 -2 -2 -2 -2 -2 -2 -2 -2 -2 -2 -2 -2 -2 -2 -2 -2 -2 -2 -2 -2 -2 -2 -2 -2 -2 -2 -3 -2 -2 -2 -2
2 2 2 2 3 3 3 3 3 2 2 2 1 1 1 1 1 1 1 1 1 1 2 2 1 1 -0 -1 -1 -2 -2 -2 -2 -1 -1 -2 -2 -2 -2 -2 -2 -2 -2 -2 -2 -2 -2 -2 -2 -2 -2 -2 -2 -2 -2 -2 -2 -2 -2 -2 -2 -2 -3 -3 -3 -3 -2 -2 -2 -2 -2 -2 -2 -2 -2 -3 -3 -2 -2 -2 -2 -2 -2 -2 -2 -2
1 1 1 2 2 2 2 2 2 2 1 1 0 0 0 0 1 1 1 1 1 1 1 1 0 -0 -1 -0 -0 0 -0 -2 -1 -1 -2 -2 -2 -2 -2 -2 -2 -2 -2 -1 -0 0 -1 -2 -2 -2 -2 -2 -2 -2 -2 -2 -2 -2 -2 -2 -2 -3 -3 -2 -2 -2 -2 -2 -2 -2 -2 -2 -2 -2 -2 -3 -3 -3 -3 -3 -3 -3 -2 -2 -2 -2
0 1 1 1 1 1 1 1 0 0 -0 -0 -0 -0 0 1 1 1 1 1 1 1 1 0 -0 -0 -0 0 1 1 0 -1 -1 -1 -1 -2 -2 -2 -2 -2 -2 -2 -2 -1 -1 -0 0 -1 -2 -3 -3 -3 -3 -3 -2 -2 -2 -2 -2 -2 -3 -3 -3 -2 -2 -2 -2 -2 -2 -2 -2 -2 -2 -2 -2 -2 -3 -3 -3 -3 -3 -3 -2 -2 -2 -2
0 0 0 0 0 0 -0 -0 -1 -1 -1 -1 -0 -0 0 1 1 1 1 1 1 1 1 0 -0 -0 -0 0 0 0 -1 -1 -1 -1 -1 -2 -2 -2 -2 -2 -2 -2 -2 -2 -2 -1 -0 -1 -2 -3 -3 -3 -3 -3 -3 -3 -3 -3 -2 -3 -3 -3 -3 -3 -3 -3 -2 -2 -2 -2 -2 -2 -2 -2 -2 -2 -2 -2 -3 -3 -3 -3 -3 -2 -2 -2
-0 -0 -0 -0 -0 -1 -1 -1 -1 -1 -1 -1 -0 -0 0 0 0 1 1 1 1 1 1 0 0 -0 -1 -1 -1 -1 -1 -1 -0 -1 -1 -2 -2 -2 -2 -3 -3 -3 -3 -3 -2 -2 -2 -2 -2 -3 -3 -3 -3 -3 -3 -3 -3 -3 -3 -3 -3 -3 -3 -3 -3 -3 -3 -3 -2 -2 -2 -2 -2 -2 -2 -2 -2 -2 -2 -3 -3 -3 -3 -3 -2 -2
-1 -1 -1 -1 -1 -1 -1 -1 -1 -1 -1 -1 -0 -0 -0 0 0 0 0 0 0 0 0 0 -0 -0 -1 -1 -1 -1 -1 -1 -1 -1 -1 -2 -2 -2 -2 -3 -3 -3 -3 -3 -3 -3 -2 -3 -2 -2 -2 -3 -3 -3 -3 -3 -3 -3 -3 -3 -3 -3 -3 -3 -3 -3 -3 -3 -3 -3 -2 -2 -2 -2 -2 -2 -2 -2 -2 -3 -3 -3 -3 -3 -3 -3
-1 -1 -1 -1 -1 -1 -1 -1 -1 -1 -1 -1 -1 -1 -0 -0 -0 -0 -0 -0 -0 -0 -0 -0 -0 -0 -0 -1 -1 -1 -1 -1 -1 -1 -1 -1 -2 -2 -2 -3 -3 -3 -3 -3 -3 -2 -2 -2 -2 -2 -2 -2 -2 -2 -3 -3 -3 -3 -3 -3 -3 -3 -3 -3 -3 -3 -3 -3 -3 -3 -3 -3 -2 -2 -2 -2 -2 -2 -2 -2 -3 -3 -3 -3 -3 -3
-1 -1 -1 -1 -1 -1 -2 -2 -2 -2 -2 -1 -1 -1 -1 -1 -1 -1 -1 -1 -1 -1 -1 -1 -1 -1 -1 -1 -1 -1 -1 -1 -1 -1 -1 -1 -2 -2 -2 -3 -3 -3 -3 -3 -3 -2 -2 -2 -2 -2 -2 -1 -1 -1 -2 -3 -3 -3 -3 -3 -3 -3 -3 -3 -3 -3 -3 -3 -3 -3 -3 -3 -3 -2 -2 -2 -2 -2 -2 -2 -2 -2 -3 -3 -3 -3
-1 -1 -1 -1 -1 -1 -1 -1 -2 -2 -2 -2 -1 -1 -1 -1 -1 -1 -1 -1 -1 -1 -1 -1 -1 -1 -1 -1 -1 -1 -1 -1 -1 -1 -2 -2 -2 -2 -2 -2 -2 -3 -3 -3 -3 -3 -2 -2 -2 -2 -2 -1 -1 -1 -2 -3 -3 -3 -4 -4 -4 -4 -4 -3 -3 -3 -3 -3 -3 -3 -3 -3 -3 -3 -3 -2 -2 -2 -2 -2 -3 -3 -3 -3 -3 -3
-1 -1 -1 -1 -1 -1 -1 -1 -2 -2 -2 -2 -1 -1 -1 -1 -1 -2 -2 -2 -2 -2 -2 -2 -2 -2 -2 -2 -2 -2 -2 -2 -2 -2 -2 -2 -2 -3 -3 -3 -3 -3 -3 -3 -3 -3 -2 -2 -1 -1 -1 -1 -2 -2 -3 -3 -3 -3 -3 -4 -4 -4 -4 -4 -3 -3 -3 -3 -3 -3 -4 -3 -3 -3 -3 -3 -3 -3 -3 -3 -3 -3 -3 -3 -3 -3
-1 -1 -1 -1 -1 -1 -1 -1 -2 -2 -2 -2 -2 -2 -2 -2 -2 -2 -2 -2 -2 -2 -2 -2 -2 -2 -2 -2 -2 -2 -2 -2 -3 -3 -3 -3 -3 -3 -3 -3 -3 -3 -3 -3 -3 -3 -3 -2 -2 -1 -1 -1 -1 -2 -3 -3 -3 -3 -3 -3 -3 -4 -4 -4 -4 -4 -3 -3 -4 -4 -4 -4 -4 -4 -4 -4 -4 -4 -4 -4 -4 -4 -3 -3 -3 -3
-1 -1 -1 -1 -2 -2 -2 -2 -2 -2 -2 -2 -2 -2 -2 -2 -2 -3 -3 -3 -3 -3 -3 -3 -3 -3 -3 -3 -3 -3 -3 -3 -3 -3 -3 -3 -3 -3 -3 -3 -3 -3 -3 -4 -4 -4 -3 -3 -2 -2 -2 -2 -2 -2 -2 -3 -3 -3 -4 -3 -3 -3 -3 -4 -4 -4 -4 -4 -4 -4 -4 -4 -4 -4 -4 -4 -4 -4 -4 -4 -4 -4 -4 -3 -3 -4
-1 -1 -1 -2 -2 -2 -2 -2 -2 -2 -2 -2 -2 -3 -3 -3 -3 -3 -3 -3 -3 -3 -3 -3 -3 -3 -3 -3 -3 -3 -3 -3 -3 -3 -3 -3 -3 -3 -4 -4 -4 -4 -4 -4 -4 -4 -4 -3 -3 -3 -3 -3 -3 -3 -2 -3 -3 -3 -4 -4 -3 -4 -4 -4 -4 -5 -4 -4 -4 -4 -4 -5 -5 -5 -5 -5 -5 -5 -4 -4 -4 -4 -4 -4 -4 -4
-1 -1 -1 -2 -3 -3 -2 -2 -2 -2 -3 -3 -3 -3 -3 -3 -3 -3 -3 -3 -3 -3 -3 -3 -4 -4 -4 -4 -4 -4 -4 -4 -4 -4 -4 -4 -4 -4 -4 -4 -4 -4 -4 -4 -4 -4 -4 -4 -4 -3 -3 -3 -3 -3 -3 -3 -3 -3 -4 -4 -4 -4 -4 -4 -4 -5 -5 -5 -5 -5 -5 -5 -5 -5 -5 -5 -5 -5 -5 -4 -4 -4 -4 -4 -4 -4
-1 -2 -2 -3 -3 -2 -2 -3 -3 -3 -3 -3 -3 -3 -3 -3 -3 -3 -4 -4 -4 -4 -4 -4 -4 -4 -4 -4 -4 -4 -4 -4 -4 -4 -4 -4 -4 -4 -4 -4 -4 -4 -5 -5 -5 -4 -5 -4 -4 -4 -4 -4 -4 -4 -3 -3 -3 -3 -3 -4 -4 -4 -4 -4 -4 -5 -5 -5 -5 -5 -5 -5 -6 -6 -6 -5 -5 -5 -5 -5 -4 -4 -4 -4 -4 -4
-2 -3 -3 -3 -3 -3 -3 -3 -3 -3 -3 -4 -4 -4 -3 -3 -4 -4 -4 -4 -4 -4 -4 -4 -4 -4 -3 -3 -4 -4 -4 -4 -4 -4 -4 -4 -4 -4 -4 -4 -4 -5 -5 -5 -5 -5 -4 -4 -4 -4 -4 -5 -4 -4 -4 -4 -3 -3 -3 -4 -4 -4 -4 -4 -4 -5 -5 -5 -5 -5 -6 -6 -6 -6 -6 -6 -5 -5 -5 -5 -5 -5 -4 -4 -4 -4
-3 -3 -3 -3 -3 -3 -4 -4 -4 -4 -4 -4 -4 -4 -4 -3 -4 -4 -4 -4 -4 -4 -4 -4 -4 -3 -3 -3 -3 -4 -4 -4 -4 -4 -4 -4 -4 -4 -4 -4 -4 -5 -5 -5 -5 -5 -5 -4 -4 -4 -4 -5 -5 -4 -4 -4 -4 -3 -3 -4 -4 -4 -4 -4 -5 -5 -5 -5 -5 -5 -6 -6 -6 -6 -6 -5 -5 -5 -5 -5 -5 -5 -4 -4 -4 -4
-3 -3 -3 -3 -4 -4 -4 -4 -4 -4 -4 -4 -4 -4 -4 -4 -4 -4 -4 -4 -4 -4 -4 -4 -4 -3 -3 -3 -3 -3 -4 -4 -4 -4 -4 -4 -4 -4 -4 -4 -4 -5 -5 -5 -5 -5 -5 -5 -5 -5 -4 -4 -4 -4 -4 -4 -4 -4 -3 -4 -4 -4 -4 -4 -5 -5 -5 -5 -5 -6 -6 -6 -6 -6 -6 -5 -5 -5 -5 -5 -5 -5 -4 -4 -4 -4
-3 -3 -3 -4 -4 -4 -4 -4 -4 -4 -4 -4 -4 -4 -4 -4 -4 -4 -4 -4 -4 -4 -4 -4 -4 -3 -3 -3 -3 -3 -3 -3 -3 -4 -4 -4 -4 -4 -4 -4 -5 -5 -5 -5 -5 -5 -5 -5 -5 -5 -5 -4 -4 -3 -3 -3 -3 -4 -4 -4 -4 -4 -4 -4 -5 -5 -5 -6 -6 -6 -6 -6 -6 -6 -5 -5 -5 -5 -4 -4 -4 -4 -4 -4 -4 -4
-3 -3 -3 -4 -4 -4 -4 -4 -4 -4 -4 -4 -4 -4 -4 -4 -4 -4 -4 -4 -4 -4 -4 -4 -4 -3 -3 -3 -3 -3 -3 -3 -3 -4 -4 -5 -4 -4 -4 -5 -5 -5 -5 -5 -5 -5 -5 -5 -5 -5 -5 -5 -5 -4 -4 -3 -3 -4 -4 -4 -4 -4 -4 -4 -4 -5 -5 -6 -6 -6 -6 -7 -7 -6 -6 -6 -5 -5 -4 -4 -4 -4 -4 -4 -4 -4
-3 -3 -3 -3 -4 -4 -4 -4 -4 -4 -4 -4 -4 -5 -4 -4 -4 -4 -4 -4 -4 -4 -4 -4 -4 -4 -3 -3 -3 -4 -4 -4 -3 -4 -4 -5 -5 -5 -5 -5 -5 -6 -6 -6 -6 -6 -6 -6 -6 -5 -5 -5 -5 -5 -4 -4 -4 -4 -4 -4 -4 -4 -4 -4 -5 -5 -5 -6 -6 -6 -6 -7 -7 -7 -7 -6 -6 -5 -5 -4 -4 -4 -4 -4 -4 -4
-3 -3 -3 -3 -4 -4 -4 -4 -4 -4 -4 -4 -4 -5 -5 -5 -5 -5 -5 -5 -5 -4 -4 -4 -4 -4 -3 -3 -3 -4 -4 -4 -4 -4 -4 -5 -5 -5 -5 -5 -6 -6 -5 -5 -5 -5 -5 -5 -4 -4 -4 -4 -4 -4 -5 -5 -4 -4 -4 -4 -4 -4 -4 -5 -5 -5 -5 -6 -6 -6 -7 -7 -7 -7 -7 -7 -6 -6 -5 -4 -4 -4 -4 -4 -4 -4
Height
785 785 785 785 786 786 786 786 787 788 789 789 791 792 793 794 795 796 797 798 799 799 800 800 800 801 801 801 802 802 802 802 803 803 804 805 805 805 806 806 806 806 806 807 808 808 809 809 810 810 810 810 810 810 810 811 811 811 811 812 812 812 813 813 813 814 814 814 814 814 814 814 815 815 815 816 816 816 816 816 816 816 816 816 817 817
784 784 784 785 785 785 786 786 786 787 787 788 790 791 792 793 794 796 796 798 798 799 799 800 800 800 801 801 801 801 802 802 802 803 803 804 805 805 805 805 806 806 806 807 807 808 809 809 809 809 809 809 810 810 810 810 810 810 810 811 811 811 811 812 812 812 813 813 813 813 813 814 814 814 815 815 816 816 816 816 816 816 816 816 816 817
783 783 783 784 784 785 785 785 786 786 787 788 789 790 791 792 794 795 796 797 797 798 799 799 799 800 800 801 801 801 801 801 802 802 803 803 804 804 805 805 805 805 806 806 807 808 808 809 809 809 809 809 809 809 810 810 810 810 810 810 810 811 811 811 811 811 812 812 812 812 813 813 813 814 814 815 815 815 815 815 815 815 815 815 816 816
782 782 782 783 783 784 784 784 785 786 786 787 788 789 791 792 793 794 795 796 796 797 798 798 799 799 799 800 800 801 801 801 801 802 802 803 804 804 804 805 805 805 806 806 807 808 808 808 808 809 809 809 809 809 809 809 809 809 810 810 810 810 810 811 811 811 811 811 812 812 812 813 813 813 814 814 814 814 814 814 814 814 815 815 815 816
780 781 781 782 782 783 783 783 784 784 785 786 787 789 790 791 792 793 794 795 796 796 797 797 798 798 799 799 800 800 801 801 801 801 802 803 803 804 804 804 805 805 806 806 807 807 808 808 808 808 808 809 809 809 809 809 809 809 809 809 809 810 810 810 810 811 811 811 811 811 812 812 812 813 813 813 813 813 813 813 814 814 814 814 815 815
779 780 780 781 781 781 781 782 782 783 784 785 786 788 789 790 791 792 793 794 795 796 796 797 797 798 798 799 799 800 800 801 801 801 802 802 803 803 804 804 804 805 806 806 807 807 807 807 808 808 808 808 808 808 808 808 808 808 808 809 809 809 809 810 810 810 810 811 811 811 811 811 812 812 812 812 812 812 813 813 813 813 813 814 814 814
778 778 779 779 780 780 780 781 781 782 783 784 786 787 788 789 790 791 792 793 794 795 796 796 797 797 798 798 799 800 800 800 801 801 802 802 803 803 803 804 804 805 806 806 806 807 807 807 807 807 808 808 808 808 808 808 808 808 808 808 808 809 809 809 809 810 810 810 810 811 811 811 811 811 811 811 811 811 812 812 812 812 813 813 813 814
776 777 778 778 779 779 780 780 781 781 782 783 784 786 787 789 790 791 792 793 794 795 795 796 796 797 797 798 799 799 800 800 801 801 801 802 802 803 803 804 804 805 805 806 806 806 807 807 807 807 807 807 807 807 807 807 807 807 807 807 808 808 808 808 809 809 809 809 810 810 810 810 810 810 810 810 810 811 811 811 811 811 812 812 813 813
775 776 777 777 778 778 779 780 780 781 782 783 784 785 786 787 789 790 791 792 793 794 795 795 796 796 797 797 798 799 800 800 801 801 802 802 802 803 803 803 804 805 805 806 806 806 806 806 806 807 807 807 807 807 807 807 806 806 807 807 807 807 808 808 808 808 808 809 809 809 809 809 809 809 809 809 809 810 810 810 810 811 811 811 812 812
774 775 776 776 777 778 779 779 780 781 781 783 784 785 785 786 787 789 791 791 792 793 794 794 795 796 796 797 798 799 799 800 801 801 801 802 802 802 803 803 804 804 805 805 806 806 806 806 806 806 806 807 806 806 806 806 806 806 806 806 807 807 807 807 808 808 808 808 808 808 808 808 809 809 809 809 809 809 809 809 810 810 810 811 811 812
773 774 775 776 777 777 778 779 779 780 781 783 784 785 785 786 786 787 789 790 791 792 793 793 794 795 796 796 797 798 799 799 799 800 800 800 801 801 802 802 803 804 804 805 805 805 805 806 806 806 806 806 806 806 806 806 806 806 806 806 806 806 807 807 807 807 807 807 808 808 808 808 808 808 808 808 808 808 809 809 809 809 810 810 811 811
773 774 775 776 776 777 778 778 779 780 781 783 784 785 785 785 786 786 787 789 790 791 792 792 793 794 795 796 796 797 798 798 799 799 799 800 800 800 801 801 802 803 803 804 804 804 805 805 805 806 806 806 806 805 805 805 806 806 806 806 806 806 806 806 806 807 807 807 807 807 807 807 807 808 808 808 808 808 808 808 808 809 809 809 810 811
772 773 774 775 776 776 777 778 779 780 781 782 783 783 784 784 785 786 786 787 789 790 791 791 792 793 793 794 795 796 797 797 798 798 799 799 800 800 801 801 802 802 803 803 804 804 804 804 805 805 805 805 805 805 805 805 805 805 805 805 805 806 806 806 806 806 806 806 807 807 807 807 807 807 807 808 808 808 808 808 808 808 809 809 809 810
772 772 773 774 775 776 776 777 778 779 780 780 781 781 782 783 783 785 786 787 788 789 790 791 792 792 793 793 794 795 796 797 797 798 798 798 799 799 800 801 801 802 802 803 803 803 803 804 804 804 804 804 804 804 804 804 804 804 804 805 805 805 805 805 806 806 806 806 806 806 806 806 806 807 807 807 807 808 808 808 808 808 808 809 809 809
771 771 772 773 774 774 775 776 776 777 777 778 779 780 781 781 783 784 785 786 786 788 789 791 791 792 793 793 793 794 795 796 796 797 797 798 798 798 799 800 801 801 801 802 802 802 802 803 803 803 803 803 803 803 803 803 803 803 804 804 804 804 804 805 805 805 806 806 806 806 806 806 806 806 806 807 807 807 807 807 807 808 808 808 809 809
769 770 771 771 772 772 773 774 774 775 776 777 778 779 780 781 782 783 784 784 785 787 788 790 791 792 793 792 793 793 794 795 796 796 797 797 797 798 798 799 800 800 801 801 801 801 801 802 802 802 802 802 802 802 803 803 803 803 803 803 803 804 804 804 805 805 805 805 805 805 805 806 806 806 806 806 806 807 807 807 807 807 807 808 808 808
768 769 769 770 770 771 771 772 772 773 774 775 776 777 778 779 781 781 782 783 784 786 787 788 790 791 791 792 792 792 793 794 795 795 796 796 796 796 797 798 799 799 800 800 800 800 801 801 801 801 801 801 801 801 802 802 802 802 802 802 803 803 803 804 804 804 804 805 805 805 805 805 805 806 806 806 806 806 806 806 807 807 807 807 808 808
767 767 768 768 769 769 770 770 771 772 773 773 774 776 777 778 779 780 781 782 783 784 786 786 787 787 788 790 790 790 791 792 794 795 795 795 795 796 796 797 798 798 798 799 799 799 799 800 800 800 800 800 800 801 801 801 801 801 802 802 802 803 803 803 804 804 804 804 804 804 804 805 805 805 805 805 806 806 806 806 806 806 807 807 807 808
766 766 766 767 767 768 768 769 770 771 771 772 773 774 776 777 778 779 780 781 782 783 783 784 785 785 786 786 787 787 789 791 792 793 794 794 794 794 795 796 797 797 797 798 798 798 798 798 799 799 799 799 799 800 800 800 801 801 801 801 802 802 803 803 803 803 804 804 804 804 804 804 804 804 804 805 805 805 805 806 806 806 807 807 807 807
765 765 766 766 766 767 767 768 768 769 770 771 772 773 774 776 777 778 779 780 781 781 782 783 783 784 784 785 785 786 788 790 791 792 793 793 793 793 794 795 796 796 796 796 796 796 797 797 797 798 798 798 798 799 799 799 800 800 801 801 801 802 802 802 803 803 803 803 803 803 804 804 804 804 804 804 804 805 805 805 806 806 806 806 807 807
764 764 764 765 766 766 766 766 767 768 769 769 771 772 773 774 776 777 778 779 780 780 781 781 782 783 783 783 784 785 786 788 790 791 792 792 792 792 793 794 795 795 795 795 795 796 796 796 796 796 797 797 797 798 798 799 799 800 800 801 801 801 802 802 802 802 803 803 803 803 803 803 803 803 803 804 804 804 805 805 805 806 806 806 806 806
763 763 763 764 764 765 765 766 766 766 767 768 769 770 771 773 775 776 776 777 778 779 780 781 781 781 782 782 783 784 786 787 789 790 791 791 791 791 791 792 793 794 794 794 794 794 795 795 796 796 796 796 797 797 798 798 799 799 800 800 801 801 801 802 802 802 802 802 802 802 803 803 803 803 803 803 804 804 804 804 805 805 805 806 806 806
762 762 763 763 763 764 764 765 765 765 766 767 768 769 770 772 773 774 775 776 777 778 779 779 779 780 781 782 783 784 785 786 787 789 790 790 791 791 791 791 792 793 793 793 793 793 794 794 795 795 795 796 796 796 797 797 798 799 799 800 800 801 801 801 801 801 802 802 802 802 802 802 802 802 803 803 803 803 803 804 804 804 805 805 805 806
761 761 762 762 762 762 763 763 764 764 765 766 767 768 770 771 772 773 774 775 776 776 777 778 779 781 781 782 783 784 785 786 786 788 789 789 789 789 790 790 791 792 792 792 792 792 793 793 794 794 795 795 796 796 796 797 797 798 798 799 800 800 801 801 801 801 801 801 801 802 802 802 802 802 802 802 803 803 803 803 803 804 804 804 805 805
760 760 760 760 761 761 762 762 763 763 764 765 766 767 768 770 771 771 772 773 774 776 777 778 780 781 781 782 783 783 784 785 786 787 788 788 788 788 789 789 790 791 791 791 791 792 792 793 793 794 794 795 795 795 796 796 797 797 798 798 799 800 800 800 801 801 801 801 801 801 802 802 802 802 802 802 802 803 803 803 803 803 803 804 804 804
759 759 759 760 760 760 761 761 762 763 763 764 765 766 767 768 770 771 772 773 774 775 777 778 779 780 781 782 783 783 784 784 785 786 786 787 787 788 788 788 789 790 790 790 791 791 792 793 793 793 794 794 795 795 795 796 796 796 797 798 798 799 800 800 800 800 801 801 801 801 801 801 802 802 802 802 802 802 803 803 803 803 803 803 803 803
758 759 759 759 759 760 760 761 761 762 763 763 764 765 766 768 769 771 771 772 773 774 776 777 778 779 780 781 782 782 783 783 784 785 786 786 787 787 787 788 788 789 789 790 790 791 791 792 792 793 793 793 794 794 795 795 796 796 796 797 798 799 799 799 799 799 800 800 800 800 801 801 801 801 801 802 802 802 802 802 803 803 803 803 803 803
758 758 759 759 759 759 760 760 761 761 762 763 764 765 766 767 768 769 770 771 772 773 774 775 776 777 779 780 781 781 781 782 783 784 785 786 786 786 786 787 787 788 789 790 790 791 791 791 792 792 792 793 793 794 794 795 795 796 796 797 797 798 798 798 798 799 799 799 799 800 800 800 801 801 801 801 801 801 802 802 802 802 802 802 803 803
758 758 758 758 759 759 760 760 761 761 762 762 763 764 765 766 767 768 768 769 771 772 773 774 774 775 776 778 779 780 781 781 782 782 784 785 785 786 786 786 787 787 788 789 790 791 791 791 791 791 792 792 793 793 794 794 795 795 796 796 797 797 797 797 798 798 798 798 799 799 799 799 800 800 800 801 801 801 801 801 802 802 802 802 802 802
757 758 758 758 758 759 759 760 760 761 761 762 763 764 765 766 767 767 768 769 770 771 772 773 773 774 776 777 779 780 781 781 781 781 782 784 784 785 785 786 786 787 788 789 790 791 791 791 791 791 791 792 792 793 793 794 795 795 795 796 796 796 796 796 797 797 797 797 798 798 798 799 799 799 800 800 800 801 801 801 801 801 802 802 802 802
757 757 757 758 758 758 759 759 760 761 761 762 763 764 765 766 766 767 767 768 769 770 771 771 772 773 775 776 777 778 779 779 779 780 781 782 783 783 784 785 786 786 787 788 788 789 789 790 790 790 791 791 791 792 793 793 794 794 795 795 796 796 796 796 796 796 796 797 797 797 798 798 798 798 798 799 799 800 800 800 801 801 801 801 801 802
756 757 757 757 758 758 759 759 760 761 761 762 762 763 764 765 766 766 767 768 768 769 770 771 771 773 774 775 775 776 776 776 777 779 780 781 782 782 783 784 785 786 786 786 787 787 787 788 789 790 790 791 791 791 792 792 793 793 794 794 795 795 794 795 795 796 796 796 796 796 797 797 797 797 798 798 798 798 799 799 800 800 801 801 801 801
756 756 756 757 757 758 758 759 760 760 761 761 762 763 764 764 765 766 767 767 768 769 770 770 771 772 773 774 774 775 775 775 776 777 779 780 781 781 782 783 784 785 786 786 786 786 787 787 788 789 790 790 790 791 791 791 792 792 793 794 794 794 794 794 795 795 795 795 796 796 796 796 796 796 797 797 797 797 798 798 799 799 800 800 800 800
756 756 756 757 757 757 758 759 759 760 760 761 762 763 764 764 765 766 766 767 768 769 769 770 771 771 772 773 774 774 775 775 776 776 778 779 779 780 781 782 783 784 785 786 786 786 787 787 787 788 789 790 790 790 790 791 791 791 792 793 793 793 793 794 794 794 794 795 795 795 795 795 795 795 796 796 796 796 796 797 797 798 799 799 799 799
756 756 756 757 757 757 758 758 759 760 760 761 762 763 763 764 765 766 766 767 768 768 769 770 771 771 772 772 773 774 774 774 775 776 777 778 779 780 781 782 782 783 784 785 786 786 787 787 787 788 788 789 789 790 790 790 790 791 791 792 792 792 792 793 793 793 793 794 794 794 794 794 794 794 794 795 795 795 795 796 796 796 797 798 798 798
756 756 756 756 757 757 758 758 759 760 760 761 762 762 763 764 765 765 766 766 767 768 769 769 770 771 771 772 772 773 773 774 775 776 776 777 778 779 780 781 781 782 783 784 785 786 786 786 787 787 788 788 789 789 789 789 789 790 790 791 791 791 791 791 792 792 792 793 793 793 793 793 793 793 793 793 794 794 794 794 795 795 796 796 796 797
755 756 756 756 756 757 757 758 759 760 760 761 761 762 763 764 764 765 766 766 767 768 768 769 770 770 771 771 772 772 773 773 774 775 776 777 777 778 779 780 781 781 782 783 784 785 785 786 786 787 787 787 787 788 788 788 788 789 790 790 790 790 790 791 791 791 791 791 792 792 792 792 792 792 792 792 792 792 793 793 793 793 794 794 795 795
754 755 755 756 756 756 757 758 759 759 760 761 761 762 762 763 764 765 766 766 767 768 768 769 770 770 771 771 771 772 773 773 774 775 776 776 777 778 779 779 780 781 782 782 783 784 785 785 786 786 786 786 786 787 787 787 788 788 789 789 789 789 789 789 790 790 790 791 791 791 791 791 791 791 791 791 791 791 791 792 792 792 793 793 793 794
753 754 754 755 755 756 757 757 758 759 759 760 760 761 762 763 764 765 766 766 767 767 768 769 769 770 770 771 771 772 773 773 774 775 775 776 777 777 778 779 780 781 781 782 783 783 784 784 785 785 785 786 786 786 786 787 787 788 788 788 788 788 788 788 788 789 789 789 789 789 789 789 790 790 790 790 790 790 791 791 791 791 791 792 792 793
752 753 754 754 755 756 756 757 757 757 758 759 760 761 762 763 764 765 765 766 766 767 768 768 769 769 770 771 771 772 772 773 774 774 775 776 776 777 778 779 779 780 781 781 782 783 783 784 784 784 784 785 785 785 786 786 786 786 787 787 788 787 787 787 787 787 787 788 788 788 788 788 788 788 788 789 789 789 789 790 790 790 791 791 791 792
751 752 753 753 754 755 755 755 756 756 758 759 760 761 761 762 763 764 765 766 766 767 767 768 768 769 770 770 771 771 772 772 773 774 775 775 776 776 777 778 779 779 780 781 781 782 783 783 783 784 784 784 784 785 785 785 785 786 786 786 787 787 787 786 786 786 786 786 786 786 787 787 787 787 787 787 788 788 788 788 789 789 789 790 790 791
750 751 752 752 753 753 753 754 755 756 757 758 759 760 761 762 762 763 764 765 766 766 767 767 768 769 769 770 771 771 772 772 773 773 774 775 775 776 777 777 778 779 779 780 781 781 782 782 783 783 783 783 784 784 784 784 785 785 785 786 786 786 786 786 785 785 785 785 785 785 785 786 786 786 786 787 787 787 787 787 787 787 788 788 789 789
749 750 751 751 751 752 753 754 755 756 757 758 759 760 760 761 762 763 763 764 765 765 766 767 767 768 769 770 770 771 771 772 772 773 774 774 775 776 776 777 777 778 779 779 780 781 781 781 782 782 782 782 783 783 783 784 784 784 784 785 785 785 785 785 784 784 784 784 784 784 784 785 785 785 786 786 786 786 786 786 786 786 786 787 787 788
748 749 749 750 750 751 752 754 755 756 756 757 758 759 760 760 761 762 763 763 764 765 765 766 767 768 769 769 770 770 771 771 772 772 773 774 774 775 775 776 776 777 778 779 779 780 780 781 781 781 781 781 782 782 782 783 783 783 783 784 784 784 784 784 784 783 783 783 783 783 783 784 784 784 784 784 784 785 785 785 785 785 785 786 786 786
747 747 748 749 750 751 752 753 754 755 756 756 757 758 759 759 760 761 762 762 763 764 764 765 766 767 768 769 769 770 770 771 771 772 772 773 773 774 775 775 776 776 777 778 778 779 779 780 780 780 780 781 781 781 782 782 782 782 782 783 783 783 783 783 783 783 783 783 783 783 783 783 783 783 783 783 783 784 784 784 784 784 784 784 785 785
746 746 747 748 749 750 751 752 753 754 755 756 756 757 758 758 759 760 761 761 762 762 763 764 765 766 767 767 768 769 769 770 770 771 771 772 772 773 774 774 775 775 776 776 777 778 778 779 779 779 780 780 780 781 781 781 781 781 781 782 782 782 782 782 782 782 782 782 782 782 782 781 782 782 782 782 783 783 783 783 783 783 783 783 783 783
744 745 746 747 748 750 751 751 752 753 754 755 756 756 756 757 758 759 760 760 761 761 762 763 764 765 766 766 767 768 768 769 770 770 770 771 771 772 772 773 774 774 775 775 776 776 777 777 778 778 779 779 780 780 780 780 780 781 781 781 781 781 781 781 781 781 781 781 781 781 781 781 781 781 781 782 782 782 782 782 782 782 782 782 782 782
743 744 745 746 748 749 750 751 752 752 753 754 755 755 756 756 757 758 759 759 760 761 761 763 763 764 765 765 766 766 767 768 768 769 769 770 770 771 771 772 773 773 774 774 775 775 776 776 776 777 777 778 778 779 779 779 779 779 780 780 780 780 780 780 780 780 780 780 780 780 780 780 780 781 781 781 781 781 781 781 781 781 781 781 781 781
742 744 745 746 747 748 749 750 751 751 752 753 754 754 755 756 756 757 758 758 759 760 761 761 762 763 764 764 765 766 766 767 767 768 768 769 769 770 771 771 772 773 773 774 774 775 775 775 775 776 776 776 777 778 778 778 778 778 778 779 779 779 779 779 779 779 779 779 778 778 778 779 779 779 780 780 780 780 780 780 780 780 780 779 779 780
742 743 744 745 746 747 748 749 750 751 751 752 753 753 754 755 756 756 757 758 758 759 760 761 761 762 762 763 764 764 765 766 766 767 768 768 768 769 770 771 771 772 773 774 774 775 775 775 775 774 774 775 775 776 777 777 777 777 778 778 778 778 778 778 778 778 778 778 777 777 777 777 778 778 779 779 779 779 779 779 779 779 779 778 778 778
741 742 743 744 745 746 747 748 749 750 751 751 752 753 753 754 755 756 756 757 758 758 759 760 760 761 761 762 763 763 764 765 766 766 767 767 767 768 769 770 771 772 773 773 774 774 775 775 774 773 773 773 773 774 775 776 776 776 776 776 776 777 777 777 777 777 777 777 777 776 776 776 777 777 777 778 778 778 778 778 778 778 778 778 777 777
Wind_Speed
13 13 14 14 14 14 16 17 19 20 21 22 22 23 23 23 22 22 21 21 21 21 21 20 19 17 16 15 14 14 13 11 11 10 9 9 8 7 6 6 6 5 5 4 5 6 8 9 10 11 11 12 12 12 12 12 11 11 11 11 10 10 10 9 8 7 6 6 5 5 5 6 6 6 7 7 7 7 7 7 7 7 7 7 7 6
13 14 14 14 14 15 16 17 19 20 21 22 23 23 24 23 23 22 22 21 21 21 21 20 19 17 15 14 14 13 13 12 11 10 9 8 8 7 6 6 5 5 4 5 6 8 9 11 12 13 13 13 13 13 13 13 13 13 12 12 12 11 11 10 9 8 8 7 6 6 6 7 7 7 7 7 7 6 6 6 7 7 7 7 6 6
13 13 14 14 15 15 15 16 18 20 21 22 23 23 24 23 23 23 22 22 22 21 21 20 19 17 15 14 14 13 12 11 10 10 9 8 8 7 7 6 5 5 5 6 8 9 10 11 12 13 13 13 13 12 12 12 12 12 11 11 11 11 10 10 9 9 8 8 7 7 7 7 8 8 7 7 7 6 6 6 7 7 7 7 6 6
13 14 14 14 14 14 15 16 17 18 19 21 22 23 23 22 22 23 23 23 22 21 20 20 19 18 16 15 14 13 12 11 10 10 9 8 8 7 7 6 6 6 7 8 9 10 10 11 12 12 12 12 12 11 11 11 11 11 10 10 10 10 10 9 9 9 9 8 8 8 8 8 8 8 8 8 7 7 7 6 7 7 7 7 6 5
13 14 14 14 14 14 15 16 18 19 20 21 22 22 22 22 22 23 23 22 22 21 20 19 19 18 16 15 14 13 12 11 10 10 9 8 8 8 7 7 7 8 8 9 10 10 10 10 11 11 11 11 11 10 10 10 10 10 10 10 10 9 9 9 9 9 9 9 9 9 9 9 9 9 9 9 9 8 8 7 7 7 7 7 6 6
11 13 15 15 16 16 17 18 20 21 21 21 22 22 22 22 22 22 22 21 21 20 20 19 18 17 16 15 14 13 11 10 10 10 9 9 8 8 8 8 9 9 10 10 10 10 10 9 9 9 9 9 9 9 9 9 10 10 9 9 9 9 9 9 10 10 10 10 10 10 11 11 11 11 11 11 10 10 9 8 7 7 7 6 6 6
10 13 15 16 17 18 18 18 20 22 22 22 22 22 23 22 21 21 21 21 20 20 19 19 18 17 16 15 14 13 11 10 10 10 9 9 9 9 9 10 10 10 11 11 10 10 9 9 8 8 8 7 7 7 7 7 7 8 8 8 8 8 8 9 9 9 10 10 11 11 11 11 11 11 11 11 11 10 9 8 7 6 6 5 5 5
11 13 15 16 16 16 17 18 19 20 21 22 22 21 21 20 20 20 20 20 20 19 19 18 17 16 16 16 15 13 10 9 9 9 9 9 9 10 10 11 11 11 11 11 10 9 9 8 7 7 6 6 5 5 5 5 6 6 6 7 7 7 7 7 8 8 8 9 9 9 9 9 9 9 10 10 10 9 9 8 7 6 5 4 4 5
12 13 14 15 14 14 15 16 17 19 20 21 21 20 20 19 18 18 18 18 18 18 17 16 16 16 16 16 15 13 11 10 9 9 9 9 10 10 11 11 11 11 11 10 9 9 8 8 7 6 6 5 5 5 6 6 6 6 6 5 5 5 6 6 6 6 7 7 7 7 6 6 6 7 7 7 7 7 7 7 7 6 5 4 4 4
13 14 13 13 14 14 13 13 16 19 20 20 20 20 19 19 18 17 15 15 16 16 15 15 15 16 16 16 15 14 13 11 11 11 10 11 11 11 11 11 11 11 10 10 9 8 7 7 7 6 6 6 6 6 7 7 6 6 6 5 5 5 5 6 6 6 6 6 5 5 4 4 4 4 5 5 5 5 5 6 6 6 5 5 4 4
11 12 12 12 12 13 12 13 17 20 20 19 18 18 19 19 19 17 14 14 14 15 15 15 15 15 15 16 17 16 14 13 13 14 14 14 14 14 14 13 12 11 11 10 9 8 7 7 6 6 6 6 7 7 8 7 7 6 6 6 6 6 6 6 6 5 5 5 4 4 4 3 3 3 3 4 4 4 4 4 5 6 6 5 4 4
10 11 11 11 12 12 11 13 17 19 20 17 14 13 14 17 18 17 15 14 14 15 16 17 17 16 15 16 16 16 15 13 13 14 15 16 16 16 16 14 13 13 12 11 10 9 8 7 7 6 6 7 8 8 8 8 7 7 7 7 7 7 7 6 5 5 5 5 4 4 4 4 4 4 3 3 3 3 3 3 4 5 6 5 4 4
10 11 11 11 12 12 11 12 14 16 17 15 13 12 13 15 17 16 14 13 14 15 16 17 18 18 18 18 17 16 14 12 13 14 15 16 16 16 16 14 13 12 12 10 9 9 8 8 7 7 7 8 8 9 9 8 8 8 8 8 8 8 7 6 5 5 5 5 5 4 4 4 4 4 4 3 3 3 3 3 3 4 5 5 4 4
9 10 10 9 10 11 12 12 13 14 15 15 15 13 13 16 18 16 13 12 12 14 15 15 16 17 18 19 20 18 15 12 12 14 15 16 17 17 16 14 13 13 12 9 8 9 9 8 8 9 9 9 9 9 10 9 9 9 9 9 8 7 6 5 5 5 5 5 5 5 5 4 4 4 3 3 3 2 2 2 3 3 4 4 4 4
9 9 9 8 9 11 12 13 14 15 15 15 15 13 13 15 17 16 12 11 12 14 13 12 12 13 14 18 21 21 18 13 11 12 13 15 17 18 16 14 13 13 12 10 9 10 10 9 9 9 10 10 10 10 10 10 10 10 9 9 7 6 5 5 5 5 6 6 6 5 5 5 4 4 3 3 3 3 3 3 3 3 3 4 4 4
11 11 10 9 10 11 13 14 14 14 14 15 15 15 14 14 16 15 12 11 12 13 12 10 9 8 10 16 20 22 20 14 11 10 10 13 17 18 16 15 14 13 13 11 11 11 10 10 9 10 10 11 11 11 11 10 10 10 9 8 6 5 5 5 5 6 6 6 6 5 5 5 4 4 4 3 3 3 3 3 3 3 3 3 4 4
11 11 10 10 10 11 12 14 14 14 14 15 17 17 15 15 15 15 13 12 13 13 11 10 8 6 7 11 17 22 22 17 12 9 9 11 15 18 17 16 13 11 13 13 12 12 11 10 10 10 10 11 11 11 11 10 10 9 8 6 5 5 5 6 6 6 6 6 6 5 5 5 5 5 5 4 4 4 4 4 4 3 3 3 3 3
11 11 11 10 10 10 12 14 16 16 15 17 18 18 16 15 15 16 15 14 13 12 11 11 9 8 7 8 13 20 23 20 14 9 9 10 13 17 18 17 15 13 13 13 13 12 11 11 10 10 10 10 10 10 10 10 9 8 6 5 5 5 6 6 6 6 6 6 5 5 5 5 5 6 6 6 5 5 4 4 4 3 3 2 2 3
11 11 11 11 10 11 13 15 16 17 16 17 18 18 16 15 15 15 15 14 13 13 12 11 10 9 8 8 13 20 24 23 16 10 9 9 12 16 18 17 15 14 13 13 13 13 12 11 11 10 10 10 9 9 9 9 8 7 6 6 6 6 6 6 6 6 6 6 5 5 5 5 5 6 6 6 6 5 4 4 4 3 3 2 2 2
10 11 13 12 11 10 12 15 17 18 17 17 18 18 17 17 16 15 14 13 13 12 11 10 10 9 8 7 11 18 23 23 18 12 9 8 10 14 17 16 15 14 13 14 14 14 12 11 11 10 10 9 9 8 8 8 7 7 6 6 6 6 6 7 6 6 6 6 6 5 5 5 5 5 5 6 6 5 4 4 4 3 2 2 2 3
9 10 12 11 10 10 10 14 17 18 18 18 18 18 18 18 16 15 14 13 12 11 10 9 9 8 8 8 11 16 20 22 18 12 9 8 9 13 16 16 15 14 13 14 14 13 12 11 10 10 9 9 8 8 8 8 7 7 7 7 7 7 7 7 7 7 6 6 6 5 5 5 4 4 5 5 5 5 4 4 4 3 3 3 3 2
9 9 10 10 10 10 9 11 14 17 19 20 19 19 18 17 15 14 14 14 13 11 10 9 9 9 11 12 13 14 17 22 19 12 9 7 7 10 16 15 14 13 12 12 13 13 11 10 10 9 9 9 9 8 8 8 8 8 8 7 7 7 7 7 7 7 6 6 5 5 5 5 4 4 4 5 5 5 4 4 4 4 4 4 3 3
9 8 8 9 12 12 10 9 11 16 19 20 20 18 17 17 16 15 15 15 14 12 12 12 12 13 14 14 13 13 15 19 19 15 9 7 6 8 14 14 13 12 12 12 13 12 11 10 9 9 9 9 9 9 9 9 8 8 8 7 7 7 7 7 7 7 6 5 5 4 4 4 4 3 3 3 4 5 5 5 5 5 5 4 4 4
11 9 8 10 13 15 14 12 12 14 17 19 19 18 17 16 15 14 15 16 16 15 16 15 13 11 11 12 12 13 14 16 18 16 10 7 6 8 11 12 12 11 10 12 12 11 10 9 9 9 9 9 9 9 9 9 9 9 8 8 7 7 7 7 7 7 6 5 4 4 3 3 3 3 3 3 3 3 4 4 5 5 5 5 5 6
14 13 12 13 14 15 16 15 15 14 15 17 19 20 19 18 17 16 16 16 16 16 15 12 9 7 8 9 11 13 14 15 17 16 10 7 5 7 10 11 10 9 8 11 11 10 9 9 9 9 9 9 8 8 8 8 9 9 9 8 7 7 8 8 8 7 6 5 5 4 4 4 4 4 4 4 4 4 4 4 4 5 5 6 6 7
14 13 13 12 12 13 14 14 14 13 13 15 18 20 20 20 18 17 15 14 14 14 12 10 8 7 7 8 9 11 14 16 16 16 13 8 6 7 9 10 10 10 8 9 10 9 9 9 9 9 9 9 8 8 8 8 8 8 8 8 8 8 8 8 8 7 7 6 6 5 4 4 4 5 5 5 5 5 5 5 5 5 5 6 6 7
11 10 10 10 10 11 12 12 12 11 11 13 16 19 20 19 17 15 13 13 14 14 12 10 9 8 7 7 7 10 15 17 16 15 14 11 7 5 8 10 11 10 8 8 10 10 10 9 9 9 9 9 8 8 8 8 8 8 8 8 8 8 9 9 9 9 8 8 7 6 5 4 4 4 5 5 6 6 6 6 6 6 6 5 6 6
9 9 9 9 10 11 12 11 11 10 11 12 14 16 18 18 15 13 12 14 15 14 12 11 9 8 7 7 8 10 15 17 16 15 13 12 7 5 9 11 11 11 9 8 9 10 10 10 10 10 10 9 9 8 8 8 8 8 8 8 9 9 9 10 10 10 10 9 8 7 5 4 4 4 5 5 6 6 6 7 6 6 6 6 5 5
9 9 9 9 10 11 11 11 11 11 11 12 13 15 16 16 14 13 14 15 15 13 12 11 10 8 8 7 7 9 12 16 16 15 13 11 7 6 10 11 12 11 10 7 6 7 8 10 11 11 10 10 9 9 8 8 9 9 9 9 10 10 10 10 10 10 10 10 9 8 6 5 5 4 5 5 6 6 7 7 7 7 6 6 6 6
8 9 9 9 10 11 11 11 11 11 11 12 13 15 15 14 13 13 15 17 16 13 11 10 9 8 8 7 6 5 7 12 16 16 14 11 7 7 11 12 13 13 10 6 4 3 5 8 11 12 11 11 10 9 9 10 11 11 12 11 10 10 11 11 11 11 11 11 10 8 7 7 6 6 6 6 6 6 7 7 7 7 6 6 6 6
8 9 9 10 10 10 10 10 11 11 12 13 14 15 16 15 13 13 15 17 17 14 12 11 10 10 10 7 4 2 3 9 15 17 15 12 9 8 11 12 14 14 12 8 4 2 2 4 7 10 11 11 10 10 11 13 13 14 13 12 10 10 12 13 12 12 12 11 11 9 8 8 8 8 8 7 7 7 7 8 7 7 7 6 6 6
10 11 11 11 11 11 11 11 11 12 12 14 15 16 17 16 15 14 15 17 18 17 15 14 13 12 12 8 5 3 3 9 14 17 17 13 11 11 12 13 14 15 14 12 6 2 1 2 3 6 9 10 10 11 13 15 16 16 15 13 10 10 13 13 13 12 12 12 12 11 11 10 10 9 9 9 9 9 9 9 8 8 7 7 7 7
12 12 12 12 13 13 13 12 12 13 14 15 16 17 16 15 14 13 13 14 16 17 16 16 15 13 12 9 7 4 4 8 13 16 18 15 12 12 13 13 13 14 14 14 10 5 2 2 3 4 6 8 10 12 14 15 17 17 17 14 11 10 12 13 13 12 12 13 13 13 13 12 11 11 10 10 10 11 11 11 10 9 8 8 7 7
12 12 12 12 13 13 13 13 14 15 15 16 16 16 15 14 13 12 11 12 14 15 15 15 15 14 12 10 7 5 5 8 11 15 17 17 13 12 14 14 13 13 13 12 10 7 4 3 4 4 5 6 8 11 13 15 17 18 18 16 13 11 12 13 13 13 13 14 14 14 14 14 13 12 11 11 11 12 12 12 12 11 10 9 8 8
10 10 11 12 12 13 13 13 14 15 16 16 16 15 15 14 13 12 12 12 13 13 13 13 13 14 13 11 8 7 7 9 12 14 16 17 15 13 14 13 13 13 11 9 8 6 4 4 5 5 4 4 6 8 11 14 16 17 17 17 16 15 15 15 15 15 14 14 14 15 15 15 14 14 13 12 12 13 13 13 13 13 12 11 10 9
9 9 9 10 11 12 12 13 14 15 16 16 16 15 14 14 13 13 13 13 13 13 12 12 12 12 13 12 10 9 10 11 13 14 15 16 15 14 13 13 14 13 10 8 7 5 4 4 5 5 4 4 4 5 9 12 14 15 16 16 17 17 17 16 16 15 15 14 14 14 14 15 15 15 14 14 13 13 14 14 14 14 14 13 12 11
9 9 9 10 11 11 12 12 13 14 15 15 15 15 14 13 13 13 13 13 13 12 12 11 11 11 11 10 10 10 10 11 12 13 13 14 14 13 12 13 14 13 11 8 7 6 5 4 4 4 4 4 4 4 5 9 11 13 14 14 15 15 16 16 16 15 15 14 13 13 14 15 15 15 15 14 14 14 14 14 15 15 15 15 15 14
9 9 9 10 10 11 11 11 12 12 14 15 15 14 14 13 12 12 12 12 12 12 11 11 10 10 9 9 9 8 9 10 11 12 12 13 13 13 11 12 13 12 11 9 7 7 5 5 5 4 5 5 4 4 5 6 7 8 10 11 12 13 14 15 15 15 15 14 14 14 15 15 15 15 15 14 14 13 13 14 15 15 16 16 16 16
10 10 10 10 11 11 11 11 11 13 15 16 16 14 13 13 12 12 11 11 11 11 10 9 9 9 8 8 8 8 9 10 10 11 11 12 12 11 11 10 11 11 11 9 8 7 6 5 5 5 4 4 4 4 5 6 6 6 7 7 9 11 12 14 15 15 15 14 14 14 14 15 15 15 14 14 13 12 12 12 13 13 14 15 16 16
11 10 10 11 11 11 10 11 12 15 17 17 15 14 13 12 12 12 11 11 10 10 9 9 8 8 8 8 8 9 9 10 10 11 11 11 11 10 10 10 10 10 10 10 8 7 5 5 5 4 4 4 4 4 4 5 6 6 6 5 6 7 8 10 12 13 14 14 14 14 14 14 14 14 14 13 13 12 11 11 11 12 13 13 13 13
11 11 11 11 11 11 12 14 16 17 17 16 15 14 13 13 13 13 12 12 11 10 10 9 9 8 8 8 8 9 9 10 10 10 10 10 10 10 9 9 9 9 9 9 9 7 6 5 5 4 4 4 4 4 4 5 5 6 6 5 5 5 6 7 9 11 12 13 13 13 13 13 13 13 12 12 11 11 12 12 12 13 13 13 13 12
11 11 10 10 12 15 16 17 17 17 16 15 15 15 15 15 14 14 14 14 13 12 12 11 11 10 10 9 9 9 9 9 10 10 9 9 9 9 9 8 8 8 8 8 8 8 6 5 5 5 4 4 4 4 4 4 5 6 6 6 6 5 6 7 9 10 10 10 10 11 11 11 10 10 10 10 10 11 12 13 14 14 13 13 13 13
11 10 10 11 14 17 19 18 17 17 16 16 16 16 16 16 15 14 14 14 14 14 13 12 12 11 10 10 10 10 10 10 10 9 9 9 9 8 8 8 8 8 8 8 7 7 7 7 6 5 5 4 4 4 4 4 5 5 6 6 6 4 3 4 6 8 9 8 8 8 8 8 8 9 9 10 11 11 12 14 15 15 15 14 13 14
10 10 11 14 16 18 19 18 17 17 17 17 16 16 16 16 15 14 13 13 14 14 14 13 12 10 8 8 9 10 11 11 11 10 10 10 9 9 8 8 8 8 8 8 7 6 7 7 7 6 6 5 5 4 4 5 5 5 6 6 6 6 5 4 5 6 7 7 7 7 7 7 8 9 10 11 11 12 12 13 14 15 15 14 14 14
11 12 13 15 16 17 17 17 17 17 16 16 15 16 16 16 15 14 13 13 14 15 15 14 12 9 8 7 8 9 11 11 12 11 11 11 10 10 10 10 10 10 9 9 7 6 5 5 6 6 6 6 6 6 5 5 6 6 6 6 7 7 7 6 6 6 6 6 6 6 6 8 9 10 10 10 10 11 11 11 12 13 14 14 15 15
13 14 14 16 16 16 16 16 16 15 15 14 14 15 16 17 16 15 14 14 14 15 15 15 12 9 8 8 8 8 9 10 11 12 12 12 11 11 11 11 11 11 11 10 9 7 6 5 5 5 5 5 6 6 7 7 6 6 6 6 6 6 7 7 7 7 6 6 6 5 6 8 9 10 9 9 9 9 10 11 11 12 13 14 15 15
14 14 15 15 15 15 15 15 15 14 13 13 13 15 16 17 16 15 14 14 14 15 15 14 11 9 8 8 8 8 8 8 8 10 12 12 12 12 12 12 11 11 11 11 11 10 9 8 7 6 5 5 5 6 7 7 7 7 6 6 6 6 6 6 7 7 7 6 6 6 7 8 9 8 8 7 7 8 9 10 11 12 13 14 14 15
15 15 15 15 15 14 13 13 14 13 12 12 13 15 17 17 16 15 14 15 15 14 14 13 10 8 8 8 8 8 8 8 7 7 9 11 12 12 12 12 11 11 11 11 11 11 11 12 11 10 9 7 5 5 6 6 7 7 6 6 6 6 6 6 6 6 6 7 7 8 7 7 6 6 6 6 6 7 7 8 10 11 12 13 14 15
15 14 15 15 14 13 12 13 13 13 12 12 13 15 17 17 16 15 15 15 14 14 13 11 10 8 7 7 8 8 8 7 7 6 7 9 10 11 11 11 11 10 10 10 10 10 11 12 13 13 13 11 9 7 6 6 6 6 6 6 6 6 6 6 5 5 5 6 7 8 8 7 6 6 6 6 6 6 7 7 8 9 10 11 13 14
14 15 15 15 14 13 13 14 14 13 12 12 13 15 16 17 16 15 15 15 14 12 11 11 10 8 7 7 8 8 8 8 7 6 7 8 9 10 10 10 10 9 7 7 7 7 8 9 11 13 14 15 13 11 9 7 6 6 6 6 6 6 6 5 5 5 5 5 6 7 7 7 7 7 7 6 6 7 7 7 7 8 8 9 11 12
14 15 15 15 14 14 14 14 14 13 12 12 13 15 16 16 15 14 14 14 13 11 10 10 9 8 8 7 8 8 9 8 8 7 7 8 9 10 10 10 9 8 6 5 4 4 4 4 6 9 12 13 13 13 13 10 7 6 6 6 6 6 5 5 5 5 4 4 4 5 7 7 7 7 7 6 6 6 7 7 7 7 7 8 9 10
Wind_Direction
228 230 231 231 226 220 218 217 212 207 207 209 208 205 203 203 204 205 204 202 200 199 198 196 192 190 191 195 199 201 202 204 206 209 212 214 217 222 230 241 250 255 253 241 217 195 180 172 166 161 158 156 153 152 150 148 148 149 150 148 147 148 150 152 155 157 158 164 171 178 188 197 202 205 206 206 207 209 212 212 211 210 213 215 214 211
228 229 229 228 223 217 214 214 211 208 207 206 205 204 202 202 203 203 203 201 200 200 199 197 193 188 186 190 195 199 201 203 206 210 213 216 219 223 229 236 242 241 234 213 191 179 176 174 173 171 169 167 165 164 162 162 162 162 162 161 160 159 158 158 159 160 162 168 176 186 196 204 208 208 207 205 206 210 214 217 216 214 214 214 213 210
223 223 223 223 218 212 208 208 208 207 207 207 206 205 202 201 201 201 201 200 200 201 200 198 194 188 184 186 192 198 202 203 205 208 212 214 218 222 224 225 224 218 203 185 174 172 174 177 178 178 178 177 177 176 175 175 174 174 174 174 174 173 172 173 175 178 181 185 192 200 206 212 214 214 212 209 209 212 217 220 221 220 218 216 213 209
217 215 215 214 211 207 205 202 201 202 205 207 207 205 201 198 198 199 200 200 200 201 201 200 197 193 189 189 192 198 202 204 206 208 210 212 216 218 215 212 204 191 178 169 167 169 174 178 181 183 184 186 186 186 187 186 186 186 186 186 187 188 190 192 196 199 203 206 209 214 217 220 222 223 222 220 220 221 223 228 230 228 226 223 218 213
210 210 210 205 199 198 200 198 197 198 201 203 203 200 196 195 197 198 199 200 200 201 201 201 200 198 196 195 196 199 202 204 205 207 209 210 210 209 203 194 183 173 166 164 165 168 174 179 183 186 189 191 193 195 198 198 199 199 198 199 200 202 205 209 213 218 222 225 227 230 232 233 234 234 234 234 233 233 234 236 238 238 236 233 228 223
201 203 204 200 196 194 194 195 197 198 198 198 197 196 194 195 197 198 198 199 200 200 201 202 203 203 202 201 199 199 200 203 204 204 205 204 201 195 187 179 171 166 164 165 166 170 174 179 184 188 192 196 200 203 207 209 210 210 209 210 211 214 218 223 228 231 236 238 241 243 244 245 246 246 246 245 244 243 243 242 243 244 243 240 237 232
192 196 198 196 196 195 193 193 196 197 195 193 192 193 194 196 198 199 200 201 202 202 203 204 206 206 205 204 202 199 197 199 200 199 198 194 189 183 176 170 167 165 166 168 170 172 176 179 184 188 193 198 203 207 210 213 214 214 215 217 218 222 226 232 236 240 244 248 250 251 252 253 253 253 252 251 250 248 246 244 243 243 243 243 241 237
185 191 194 193 193 192 191 191 193 195 195 191 188 188 190 194 197 201 203 205 206 206 207 208 209 209 206 205 202 196 189 189 190 189 188 184 179 175 171 168 166 166 168 170 173 176 180 184 188 193 197 200 200 201 202 205 208 212 215 219 222 227 233 240 246 251 255 257 259 259 259 258 256 255 253 252 250 248 245 241 238 236 237 238 239 237
185 186 192 193 191 187 185 188 190 191 192 191 189 187 186 188 192 197 201 204 207 209 210 209 207 206 204 203 197 187 177 175 175 176 176 175 173 170 168 167 167 169 171 173 176 181 187 193 198 203 204 201 198 197 199 202 207 212 218 224 231 238 248 257 263 267 269 270 270 269 266 261 256 252 250 249 248 246 243 238 232 227 225 225 227 229
190 187 187 192 194 191 186 188 190 190 188 189 190 191 189 185 184 185 189 195 202 207 207 204 200 197 198 197 190 181 171 168 168 168 167 167 166 164 165 164 166 170 174 177 180 185 192 200 206 209 206 202 201 204 208 212 216 221 228 236 247 257 266 273 275 276 276 276 275 272 267 258 249 244 242 242 242 242 240 234 227 219 213 210 212 216
186 186 183 184 188 191 190 191 192 189 186 185 188 191 192 190 185 180 177 183 191 196 197 195 191 188 188 188 184 179 173 171 172 171 169 168 166 164 165 165 169 174 178 181 185 190 196 201 204 203 201 201 206 212 219 223 228 234 241 250 261 269 275 276 275 272 270 269 267 262 255 246 237 232 230 230 230 231 233 230 223 213 205 198 197 202
177 179 180 180 181 183 186 189 189 187 184 182 183 188 193 193 191 186 180 179 183 186 188 188 186 182 180 182 181 179 177 177 178 178 176 175 173 173 172 173 177 182 186 191 197 203 207 208 203 199 197 204 213 221 228 233 239 246 253 261 268 274 276 272 266 261 257 255 253 250 245 239 229 222 217 216 216 216 219 222 219 211 201 192 187 188
176 175 175 177 179 181 181 179 179 181 183 185 189 193 197 195 192 188 185 183 183 184 185 186 185 184 182 181 180 180 179 180 182 183 183 183 182 182 181 182 186 191 195 199 207 215 221 221 215 208 204 209 219 229 237 243 249 255 261 267 273 275 273 264 255 247 245 245 246 246 245 241 231 220 212 206 204 204 207 212 213 208 198 188 182 179
173 172 172 175 181 185 184 178 178 182 189 194 198 200 199 194 188 182 178 176 179 181 182 183 186 188 188 187 184 182 180 180 183 186 188 190 191 192 191 193 197 202 204 205 211 221 227 228 226 223 220 220 226 236 245 252 257 262 266 271 274 272 265 251 239 233 235 239 243 247 248 244 233 217 204 198 197 198 200 204 207 204 195 187 181 179
177 175 176 182 187 190 190 188 188 191 195 197 199 199 195 190 186 181 173 168 170 173 173 176 183 190 195 194 192 189 185 182 182 186 190 196 199 200 201 202 207 211 212 211 218 227 231 232 231 231 231 230 233 239 247 254 260 265 269 271 270 264 249 233 224 224 230 237 244 249 250 244 229 210 197 193 194 194 195 195 197 198 194 189 185 185
186 184 186 190 194 195 195 193 194 195 195 195 197 196 189 185 185 184 180 171 167 166 167 169 176 189 202 202 200 196 192 188 186 188 191 201 205 206 207 209 213 217 218 219 225 233 237 238 237 237 236 236 238 242 246 252 258 263 266 266 259 244 228 219 218 222 230 239 246 251 249 239 221 204 193 192 192 193 193 193 193 194 194 193 193 195
191 192 195 196 197 197 196 195 195 194 193 193 195 196 192 187 185 184 181 173 167 167 171 174 177 184 199 206 205 202 197 194 193 193 194 204 209 210 210 212 213 217 223 226 232 238 242 243 243 242 241 241 242 244 246 250 254 257 258 252 237 222 215 214 217 224 232 240 245 247 243 233 216 202 194 193 192 193 195 195 194 194 194 198 203 207
196 199 201 201 200 197 195 195 195 194 193 193 194 194 193 190 187 184 180 175 172 174 180 184 187 189 190 196 207 207 200 196 195 196 198 206 213 215 214 215 217 221 226 232 238 243 246 247 247 246 246 245 245 245 246 247 248 247 242 230 218 213 212 213 218 225 232 238 240 239 236 229 218 207 200 196 195 195 197 198 196 193 191 199 212 221
203 204 204 205 204 200 196 196 196 195 194 193 193 192 189 188 187 184 182 180 181 183 185 188 192 196 196 191 201 205 202 197 195 198 203 206 216 219 217 218 221 226 231 237 242 246 249 249 249 248 247 246 244 242 241 240 237 231 222 214 211 211 212 214 218 223 228 230 230 229 229 229 225 217 209 203 200 199 201 199 193 187 185 204 225 227
211 210 210 209 206 202 200 202 202 200 198 197 194 191 189 187 186 185 186 187 189 189 188 190 194 197 192 181 194 202 202 199 197 199 207 207 216 221 220 220 223 228 233 240 245 248 249 249 249 248 245 242 239 236 232 228 222 216 211 208 209 211 213 214 217 221 226 229 228 224 223 227 229 226 218 209 204 202 203 201 195 192 199 222 227 221
217 216 214 211 208 207 206 209 209 207 203 201 196 191 189 188 188 189 190 190 190 191 190 193 194 190 185 184 195 201 201 198 196 197 206 208 217 223 224 222 224 228 233 241 246 247 246 246 245 242 237 233 229 225 221 216 212 209 208 208 210 212 214 213 215 219 225 228 227 222 217 221 227 229 223 212 205 203 206 208 210 214 222 225 222 219
224 222 219 214 212 212 213 215 213 211 209 206 199 192 191 190 190 191 192 190 189 189 191 193 189 186 188 193 198 199 197 196 195 195 200 206 214 223 226 224 225 228 231 239 244 244 241 239 236 232 227 222 218 215 211 209 208 209 208 209 211 212 213 212 213 215 220 226 228 223 217 220 226 229 227 215 208 207 212 217 223 227 230 232 229 227
227 228 224 219 216 215 213 210 210 213 215 211 205 199 197 193 192 192 192 191 188 186 186 188 190 193 196 199 198 194 192 193 194 193 195 204 208 217 226 224 224 226 227 235 239 238 233 229 225 221 217 215 213 210 208 207 209 211 211 211 211 213 212 211 210 211 215 223 227 226 223 224 228 233 235 227 219 215 217 220 224 229 234 236 236 235
226 228 228 227 225 222 217 214 216 219 218 212 207 203 199 195 193 193 194 192 189 189 190 191 189 188 191 192 189 186 187 190 191 192 193 201 208 214 222 220 218 218 222 230 231 227 221 217 214 212 210 210 211 211 211 212 213 214 212 210 211 213 211 209 207 208 212 219 225 227 230 236 240 246 254 258 254 245 237 235 235 236 237 238 237 235
225 226 229 232 232 228 223 223 225 226 221 212 205 201 197 195 193 193 192 191 189 187 185 179 171 166 174 178 180 182 185 184 188 191 191 197 204 213 220 215 206 203 212 223 221 213 207 206 206 207 208 209 212 215 218 220 220 217 212 209 210 212 210 206 205 205 208 212 217 222 228 238 244 248 251 258 265 267 265 260 257 254 251 248 246 242
227 229 232 233 228 222 219 222 227 231 228 218 209 202 198 195 193 191 187 184 181 177 170 167 168 170 170 171 177 184 187 185 188 192 194 195 199 209 215 209 200 195 200 210 207 200 197 200 204 207 209 212 215 219 223 226 224 218 210 208 209 209 206 202 201 202 205 208 212 217 226 236 243 248 249 251 255 259 262 263 263 264 263 262 259 256
227 229 230 228 221 213 210 212 218 224 226 221 213 206 199 193 187 181 175 176 176 173 170 177 180 177 173 177 182 188 191 189 191 195 199 199 196 200 206 203 196 191 190 196 197 195 194 199 206 212 215 218 221 225 227 225 218 211 205 205 205 203 200 198 199 202 207 210 211 214 221 233 244 251 252 252 251 252 254 256 259 262 265 267 269 268
223 224 224 220 213 206 201 202 205 209 211 211 209 204 197 189 181 177 179 181 178 176 180 184 183 179 179 183 185 189 194 193 195 199 201 199 194 195 201 197 192 187 183 185 194 200 203 208 214 219 223 226 229 230 228 221 209 198 194 197 197 196 195 197 202 207 211 215 217 219 223 231 241 251 254 252 250 249 249 251 255 259 264 266 267 267
219 217 215 210 205 200 197 197 197 198 198 198 199 198 194 188 185 186 186 183 179 179 186 189 187 180 175 171 175 186 196 200 202 203 201 194 191 198 200 192 189 186 180 176 188 204 216 222 225 228 230 232 233 230 223 212 199 189 184 186 189 192 195 200 205 210 215 218 222 226 233 238 241 245 249 249 248 246 246 247 250 255 259 260 258 256
208 205 202 200 197 194 193 192 192 190 188 188 190 191 190 190 192 193 191 186 181 180 185 186 182 172 161 153 157 179 201 209 210 207 200 191 190 196 195 188 187 185 178 167 166 193 218 229 232 233 232 232 231 225 214 204 197 191 184 183 186 193 201 206 210 214 219 222 226 234 246 254 253 247 243 242 242 242 242 243 245 248 252 254 253 251
191 188 187 186 184 183 183 183 182 180 180 182 185 187 189 191 195 198 198 191 187 184 183 180 176 171 165 158 160 175 196 209 211 208 199 189 186 190 188 184 186 187 182 173 169 176 178 208 226 230 227 226 223 216 207 200 197 194 189 186 189 199 210 215 218 222 226 229 234 243 257 267 269 261 251 242 238 238 238 239 239 241 245 249 250 249
187 184 181 177 174 171 170 170 170 172 175 180 186 189 191 194 198 203 205 199 194 190 187 183 181 179 178 179 184 181 171 204 207 204 198 189 186 188 187 184 185 188 189 185 183 180 153 155 181 205 213 213 212 209 204 200 198 197 195 193 196 208 218 222 225 229 234 238 243 251 261 271 275 272 261 251 243 238 236 234 234 234 239 245 248 249
189 186 182 178 174 170 167 166 167 171 177 182 186 189 191 193 196 200 203 201 199 196 194 191 187 184 184 187 186 181 184 204 203 199 195 191 187 186 188 186 186 188 192 193 194 193 171 139 142 162 187 198 204 205 204 203 202 203 203 202 205 216 225 229 232 237 242 247 252 257 264 270 274 274 269 261 252 245 240 235 232 231 235 242 247 249
186 183 180 177 174 172 170 170 172 175 180 183 185 186 187 188 189 190 190 192 195 199 201 201 196 190 186 185 182 184 197 206 198 192 193 193 189 184 186 185 184 186 188 194 198 200 190 161 147 149 167 187 200 206 207 207 207 209 210 211 214 221 230 234 238 243 249 254 259 264 267 270 272 272 270 266 260 253 247 241 236 232 233 238 243 247
181 178 177 175 173 171 171 172 174 177 179 180 181 182 183 184 185 184 183 184 188 193 199 203 203 199 193 187 182 183 192 197 190 187 190 193 191 185 183 183 184 184 182 185 190 192 188 177 167 161 161 173 193 208 213 213 213 214 216 218 222 228 235 240 243 247 253 257 262 266 269 270 271 271 270 267 262 256 250 244 238 233 232 234 238 242
177 176 175 174 172 171 170 171 172 173 175 176 177 178 181 183 184 185 185 185 186 188 190 192 195 197 197 194 190 189 193 191 186 184 187 192 192 187 179 183 186 186 181 180 181 182 178 177 177 176 175 177 182 199 214 220 219 218 221 225 229 234 239 243 246 249 253 257 261 264 267 269 270 270 269 266 262 257 251 244 239 234 229 228 229 233
179 178 176 175 173 172 171 171 171 171 173 174 176 178 181 183 184 185 185 185 184 183 183 182 182 184 187 191 194 197 196 190 184 180 182 186 189 187 182 185 189 188 184 180 180 180 175 172 176 184 194 197 192 187 197 217 222 223 227 230 233 237 242 245 248 250 252 255 257 261 264 267 269 269 268 266 263 258 252 247 242 237 233 229 226 226
184 183 180 179 177 175 174 174 174 175 176 177 178 180 182 182 182 181 181 180 179 179 177 177 176 177 178 182 185 188 187 183 180 178 178 180 185 188 186 188 189 190 190 186 182 179 176 175 178 186 199 206 202 190 179 197 206 214 222 230 235 239 244 247 250 251 252 254 257 259 262 264 266 267 266 265 261 257 251 246 243 241 238 235 232 230
189 187 185 183 182 181 180 179 179 181 183 184 185 185 184 182 180 178 177 176 176 176 176 176 175 174 175 176 177 176 174 174 175 175 175 176 180 184 186 187 188 190 191 190 187 184 184 187 189 190 191 195 195 193 193 196 197 200 210 226 238 245 248 251 253 254 254 256 257 259 260 262 262 262 261 260 257 252 246 242 240 239 238 236 235 235
191 190 189 188 186 185 183 183 185 188 190 190 190 189 187 184 181 179 178 178 178 178 178 177 176 175 175 175 176 175 173 173 173 174 174 174 176 178 181 184 186 188 189 188 187 187 192 200 204 202 197 191 190 193 197 202 205 206 209 220 233 241 247 255 258 259 258 258 257 256 256 256 256 256 255 254 251 246 240 236 235 235 235 234 234 236
193 192 191 189 187 186 186 190 193 195 194 193 192 191 189 187 184 182 182 183 183 182 182 181 180 179 179 179 179 179 178 177 177 177 177 176 176 177 179 183 186 189 189 190 189 191 198 205 208 208 204 200 198 199 202 205 208 211 215 222 231 237 241 249 254 259 261 260 257 254 250 249 249 250 250 249 247 244 240 236 235 236 237 236 234 233
193 193 190 187 189 193 196 198 198 197 196 195 194 193 193 191 189 187 186 186 186 186 185 184 183 182 182 183 184 184 184 184 184 184 183 183 184 184 185 188 192 195 196 196 196 198 203 207 210 209 207 204 203 207 214 215 214 214 219 225 235 247 254 245 246 252 257 261 259 254 246 240 239 239 240 239 239 240 242 241 240 240 240 240 239 237
193 191 187 189 194 198 200 201 199 198 196 195 194 195 196 195 193 191 190 190 190 190 188 186 184 182 182 185 189 190 191 191 191 191 192 193 195 197 199 200 203 206 206 202 201 204 209 211 213 214 211 208 209 214 220 223 221 220 221 223 227 232 241 229 238 250 257 261 261 254 243 232 228 229 232 233 236 240 245 248 248 246 244 244 244 244
190 189 190 195 199 201 200 199 198 197 195 194 194 196 199 199 197 194 193 192 193 193 191 187 183 179 179 183 191 197 198 198 198 199 201 203 206 209 213 215 217 218 217 209 205 207 211 215 217 218 216 214 216 221 226 229 230 228 225 225 224 225 230 229 234 245 257 260 259 254 244 232 229 231 237 241 243 246 250 253 254 253 250 247 247 248
189 192 196 199 198 197 195 195 195 195 194 194 196 199 201 200 198 196 194 192 193 194 192 186 180 176 180 180 183 191 201 203 205 207 209 212 215 218 222 224 225 225 222 217 212 209 208 211 215 217 218 219 221 225 230 233 235 235 233 230 229 232 235 237 239 240 243 243 242 240 239 238 239 242 247 251 253 253 252 252 253 253 254 252 251 250
194 195 195 196 194 192 191 192 192 192 192 194 197 200 201 200 198 196 195 193 192 191 190 185 181 179 182 182 180 181 190 201 209 214 216 218 221 224 227 228 228 227 224 219 217 216 216 215 211 207 210 217 224 228 230 231 233 236 236 232 231 234 239 241 241 240 237 233 228 225 229 240 246 249 252 254 253 251 250 250 249 249 251 252 253 253
193 192 191 190 188 187 188 190 190 189 189 191 195 199 199 197 194 192 192 193 191 188 185 184 183 185 185 182 180 180 181 187 198 212 221 223 224 226 228 228 228 228 226 222 219 218 217 215 212 208 206 211 220 227 229 228 229 231 233 232 232 234 236 238 239 239 237 231 225 225 234 244 250 252 253 251 250 250 250 251 252 252 252 252 253 254
191 188 186 184 183 182 184 186 187 186 185 187 192 195 196 193 190 187 187 189 188 185 181 181 184 188 189 187 186 185 185 185 185 195 213 221 224 224 224 224 224 224 224 224 223 223 223 221 218 214 212 215 224 231 231 227 225 227 230 231 233 236 238 238 237 236 236 232 231 234 240 242 242 242 245 248 251 251 250 251 254 256 257 256 255 255
188 185 182 181 179 179 181 183 184 183 183 184 187 190 191 190 188 186 185 185 185 182 180 181 184 187 188 190 190 190 189 187 184 185 195 209 216 218 217 216 216 216 218 222 227 230 233 235 233 231 228 224 227 235 236 233 230 229 230 231 232 235 237 239 236 233 231 236 243 248 247 239 233 233 238 246 253 255 254 253 253 254 257 258 258 257
185 183 181 179 179 179 181 182 182 182 181 182 184 185 186 186 187 187 187 186 184 183 184 185 186 188 189 190 191 191 191 190 187 185 186 198 205 207 206 205 203 203 206 216 227 236 243 251 251 248 245 238 233 232 232 235 235 233 231 231 231 232 233 236 234 231 227 228 244 254 251 239 232 232 236 243 252 259 261 259 256 253 254 257 259 259
182 182 182 181 181 181 182 183 182 182 181 182 183 184 183 184 185 187 188 187 186 185 187 189 190 191 192 190 189 191 192 191 190 187 184 193 197 196 194 193 189 185 184 193 204 214 228 250 260 260 255 250 242 233 227 227 228 229 230 229 227 226 227 229 228 225 219 215 230 248 252 245 237 234 235 238 248 258 262 260 257 253 250 253 257 260